Current weather by "City, St" or "zip code"  
 
Advertise Here

Current Conditions: Hayward, Hayward Air Terminal, CA

Mostly Cloudy


54.0 F

Last Updated on Jan 27 2021, 11:54 am PST
Humidity: 69%
Wind Speed: SE 11.5 mph
Barometer 29.80 in
Dewpoint: 44.1 F
Visibility: 10.00 mi
Precip: --
Heat Index: NA
Wind Chill: 51 F
Current conditions at:

Hayward, Hayward Air Terminal, CA (KHWD)

Lat: 37.66083 Lon: 122.11833

Local Radar Image active severe weather and emergency alerts image image weather storm and storm spotter reports image weather observation monitoring service image
Local
Radar
Active
Alerts
Storm Reports Obs
Monitoring

Sign-up For Email & Text Message Weather Alert Notification Services


Advertise Here

Observation History for Hayward, Hayward Air Terminal, CA


Time Wind
(mph)
Vis
(mi)
Weather Precip (in) Temperature (F) Relative
Humidity
Wind
Chill
(F)
Heat
Index
(F)
Pressure
Air Dwpt altimeter
(in)
sea level
(mb)
Rmks
11:54 am PST SE 11.5 10.00 Mostly Cloudy -- 54.0 44.1 69% 51 NA 29.80 1010.1
10:54 am PST SE 12.7 10.00 Mostly Cloudy -- 53.0 44.1 72% 49 NA 29.82 1010.7
9:54 am PST SE 10.4 10.00 Partly Cloudy -- 52.0 44.1 75% 48 NA 29.82 1010.7
8:54 am PST SE 11.5 10.00 Fair -- 50.0 44.1 80% 46 NA 29.81 1010.4
7:54 am PST S 9.2 10.00 A Few Clouds -- 49.0 43.0 80% 45 NA 29.79 1009.9
6:54 am PST SE 9.2 10.00 Overcast -- 49.0 44.1 83% 45 NA 29.78 1009.5
5:54 am PST SE 11.5 10.00 Partly Cloudy -- 49.0 44.1 83% 44 NA 29.76 1008.8
4:54 am PST SE 10.4 10.00 Mostly Cloudy -- 48.0 44.1 86% 43 NA 29.74 1008.1
3:54 am PST SE 11.5 10.00 Overcast Trace 48.0 44.1 86% 43 NA 29.72 1007.4
2:54 am PST SE 16.1 6.00 Light Rain 00.03 48.0 43.0 83% 42 NA 29.71 1007.1
1:54 am PST SE 21.9 G 33.4 10.00 Light Rain and Breezy 00.06 47.0 42.1 83% 39 NA 29.67 1005.8
12:54 am PST SE 21.9 G 36.8 4.00 Rain and Breezy 00.25 46.0 41.0 83% 38 NA 29.67 1005.5
11:54 pm PST SE 26.5 G 35.7 4.00 Rain and Windy 00.18 46.0 39.9 79% 37 NA 29.67 1005.7
10:54 pm PST SE 27.6 G 43.7 7.00 Light Rain and Windy 00.04 46.0 37.9 73% 37 NA 29.68 1006.0
9:54 pm PST S 28.8 G 41.4 10.00 Light Rain and Windy Trace 45.0 37.9 77% 35 NA 29.69 1006.4
8:54 pm PST SE 29.9 G 41.4 10.00 Light Rain and Windy Trace 46.0 37.0 71% 37 NA 29.71 1007.1
7:54 pm PST SE 23.0 G 38.0 10.00 Overcast and Breezy Trace 46.0 37.0 71% 38 NA 29.75 1008.4
6:54 pm PST S 18.4 10.00 Light Rain -- 46.0 37.0 71% 39 NA 29.80 1010.0
5:54 pm PST S 17.3 G 26.5 10.00 Light Rain -- 47.0 37.0 69% 40 NA 29.82 1011.0
4:54 pm PST SE 10.4 10.00 Light Rain 00.02 46.0 37.0 71% 41 NA 29.85 1012.0
3:54 pm PST SE 18.4 9.00 Light Rain -- 46.0 36.0 68% 39 NA 29.89 1013.2
2:54 pm PST S 17.3 G 21.9 7.00 Light Rain Trace 48.0 35.1 61% 42 NA 29.91 1014.0
1:54 pm PST SE 15.0 10.00 Mostly Cloudy -- 51.0 34.0 52% 46 NA 29.93 1014.3
12:54 pm PST S 11.5 10.00 Overcast -- 50.0 33.1 52% 46 NA 29.95 1015.3

Regional Weather Observation


Hayward, Hayward Air Terminal, CA (KHWD)

Mostly Cloudy
54.0 F

San Francisco, San Francisco International Airport, CA (KSFO)

Overcast
54.0 F

Concord, Buchanan Field, CA (KCCR)

Mostly Cloudy
56.0 F

San Carlos Airport, CA (KSQL)

Overcast
54.0 F

Half Moon Bay Airport, CA (KHAF)

Fog/Mist
54.0 F

Palo Alto Airport, CA (KPAO)

Partly Cloudy
52.0 F